Flag for Germany Weather past 2 weeks in Emsdetten, North Rhine-Westphalia, Germany

Now
68 °F

Passing clouds.


Feels Like: 68 °F
Forecast: 57 / 69 °F
Wind: 6 mph from North

Location: Muenster / Osnabrueck

Current Time: Aug 31, 2015 at 2:41:24 AM

Latest Report: Aug 31, 2015 at 2:20 AM


Visibility: N/A

Pressure: 30.01 "Hg

Humidity: 94%

Dew point: 66 °F

Location of EmsdettenLocation

Historic Weather in Emsdetten — Graph

°F

Emsdetten temperature yesterday

Maximum temperature yesterday: 82 °F (at 3:20 PM)
Minimum temperature yesterday: 59 °F (at 1:50 AM)
Average temperature yesterday: 70 °F

Past Weeks' High & Low Weather Summary

 TemperatureHumidityPressure
High82 °F (Aug 30, 3:20 PM)100% (Aug 16, 2:50 AM)30.27 "Hg (Aug 16, 2:50 AM)
Low50 °F (Aug 19, 6:20 AM)34% (Aug 23, 2:20 PM)29.53 "Hg (Aug 24, 5:20 PM)
Average64 °F79%29.97 "Hg
* Reported Aug 16 1:20 AM — Aug 31 1:20 AM, Emsdetten, Weather by CustomWeather, © 2015

Note: Actual official high and low records may vary slightly from our data, if they occured in-between our weather recording intervals... More about our weather records

Advertising

Emsdetten weather history for previous 24 hours

 ConditionsComfort  
Time TempWeatherWind HumidityBarometerVisibility
1:20 AM
Mon, Aug 31
70 °FThunderstorms. Fog.2 mph100%29.98 "Hg2 mi
12:50 AM70 °FFog.2 mph100%29.98 "Hg2 mi
12:20 AM68 °FFog.2 mph100%29.98 "Hg2 mi
11:20 PM
Sun, Aug 30
70 °FFog.2 mph94%29.98 "Hg3 mi
10:50 PM70 °FClear.1 mph100%29.98 "Hg4 mi
10:20 PM72 °FClear.3 mph94%29.98 "Hg4 mi
9:20 PM72 °FClear.5 mph100%30.01 "Hg5 mi
8:50 PM73 °FClear.6 mph94%29.98 "Hg5 mi
8:20 PM73 °FPassing clouds.6 mph94%29.98 "HgN/A
7:50 PM77 °FSunny.5 mph83%29.98 "Hg10 mi
7:20 PM77 °FSunny.7 mph83%29.98 "Hg10 mi
6:50 PM79 °FSunny.7 mph84%29.98 "Hg10 mi
6:20 PM79 °FSunny.7 mph84%29.98 "Hg10 mi
5:50 PM81 °FSunny.6 mph79%29.98 "Hg10 mi
5:20 PM81 °FSunny.7 mph79%29.98 "Hg10 mi
4:50 PM81 °FPassing clouds.8 mph79%29.98 "HgN/A
4:20 PM81 °FSunny.8 mph79%29.98 "Hg10 mi
3:50 PM82 °FSunny.3 mph70%29.98 "Hg10 mi
3:20 PM82 °FPassing clouds.3 mph70%29.98 "HgN/A
2:50 PM81 °FSunny.2 mph74%30.01 "Hg10 mi
2:20 PM81 °FSunny.3 mph70%30.01 "Hg10 mi
1:50 PM79 °FSunny.3 mph79%30.01 "Hg10 mi
1:20 PM77 °FScattered clouds.3 mph83%30.01 "HgN/A
12:50 PM75 °FScattered clouds.6 mph83%30.04 "HgN/A
12:20 PM73 °FPartly sunny.5 mph89%30.04 "HgN/A
11:50 AM72 °FBroken clouds.5 mph88%30.04 "HgN/A
11:20 AM70 °FBroken clouds.5 mph94%30.04 "HgN/A
10:50 AM68 °FThundershowers. Broken clouds.6 mph94%30.01 "HgN/A
10:20 AM68 °FThunderstorms. Broken clouds.5 mph94%30.04 "Hg4 mi
9:50 AM68 °FBroken clouds.2 mph100%30.07 "HgN/A
9:20 AM68 °FBroken clouds.3 mph100%30.07 "HgN/A
8:50 AM64 °FBroken clouds.2 mph100%30.07 "HgN/A
8:20 AM63 °FBroken clouds.2 mph100%30.07 "Hg4 mi
7:50 AM63 °FBroken clouds.1 mph100%30.07 "Hg4 mi
7:20 AM63 °FFog.6 mph100%30.07 "Hg3 mi
6:50 AM63 °FThunderstorms. Partly cloudy.3 mph100%30.07 "Hg1 mi
6:20 AM63 °FStrong thunderstorms. Passing clouds.7 mph100%30.07 "Hg1 mi
5:50 AM64 °FThunderstorms. Passing clouds.10 mph83%30.07 "HgN/A
5:20 AM63 °FThundershowers. Partly cloudy.5 mph88%30.04 "HgN/A
4:50 AM63 °FPassing clouds.5 mph88%30.07 "HgN/A
4:20 AM61 °FPassing clouds.3 mph94%30.07 "HgN/A
3:50 AM61 °FPassing clouds.2 mph88%30.07 "HgN/A
3:20 AM61 °FPassing clouds.3 mph88%30.07 "HgN/A
2:50 AM61 °FPassing clouds.2 mph88%30.09 "HgN/A
2:20 AM59 °FPassing clouds.1 mph94%30.09 "HgN/A
Weather by CustomWeather, © 2015

See weather overviewHow to use our weather pages